RH
62 64 64 64 63 62 61 60 59 59 59 59 59 59 58 58 58 58 59 59 59 60 60 61 60 59 58 55 52 49 46 44 42 39 37 35 33 31 29 27 25 23 21 19 17 15 13 10 8 6 4 4 3 4 4 4 5 5 5 4 4 4 4 3 3 3 3 3 4 4 5 6 7 8 10 10 11 11 10 10 10 10 10 10 11 11
64 65 65 65 64 63 62 61 61 61 61 61 61 61 60 60 60 60 60 60 60 60 61 61 60 59 56 53 50 47 45 43 41 38 36 34 32 30 28 26 24 22 20 18 16 13 11 8 6 5 3 3 3 4 4 5 5 4 4 4 4 4 3 3 3 3 3 4 4 5 6 7 8 9 10 11 11 11 10 10 10 10 10 10 11 11
66 66 66 65 64 63 63 63 62 62 62 62 63 63 63 63 63 63 62 62 62 61 61 61 59 57 55 52 49 46 44 42 39 37 35 33 31 29 27 25 23 21 19 17 14 11 9 6 5 4 3 3 4 4 5 5 4 4 4 4 4 3 3 3 3 3 4 4 5 6 7 8 9 10 11 11 11 11 10 10 10 10 10 10 11 11
67 67 66 65 64 64 64 64 64 63 63 64 64 64 64 65 65 64 64 64 63 63 62 60 58 56 53 50 48 45 43 40 38 36 34 32 30 28 26 24 22 19 17 15 12 9 7 5 4 3 3 4 4 5 5 4 4 4 4 3 3 3 3 3 3 4 4 5 6 7 8 9 10 11 11 11 11 10 10 10 10 10 10 11 11 12
66 66 65 65 64 64 64 64 64 64 64 65 65 65 66 66 66 65 65 65 64 63 61 59 57 54 51 49 46 44 42 39 37 35 32 30 29 27 25 23 20 18 15 12 10 7 5 4 4 4 4 4 5 5 4 4 4 4 3 3 3 3 3 3 4 4 5 6 7 8 9 10 11 11 12 11 11 10 10 10 10 10 10 11 12 13
65 64 64 64 64 64 64 64 64 65 65 66 67 67 67 66 66 66 66 66 65 63 61 58 55 52 50 48 45 43 40 38 35 33 31 29 27 26 24 21 19 16 13 10 8 5 4 4 4 4 5 5 5 4 4 4 4 3 3 3 3 3 3 4 4 5 6 7 8 9 10 11 12 12 12 11 11 10 10 10 10 11 11 12 13 14
64 63 63 63 63 63 64 64 65 65 67 68 68 68 68 68 68 67 67 66 64 62 60 57 54 51 48 46 43 41 39 37 34 32 30 28 26 24 22 20 17 14 10 8 6 4 4 4 4 5 5 5 5 4 4 4 3 3 3 3 3 3 4 4 5 6 7 8 9 10 11 12 12 12 12 12 11 11 11 11 11 12 12 14 15 17
63 63 62 62 62 62 63 64 65 66 67 69 70 70 70 70 70 69 68 66 64 61 59 56 53 50 47 44 42 40 37 35 33 31 29 27 25 23 20 18 14 11 8 6 5 4 4 4 5 5 5 5 4 4 4 3 3 3 3 3 3 4 4 5 6 7 8 9 10 11 12 13 13 13 13 12 12 12 12 12 13 14 15 17 19 22
64 63 62 62 62 62 63 64 65 66 68 69 70 71 72 72 72 71 70 67 63 60 57 54 52 49 46 43 41 39 36 34 32 30 28 26 24 21 18 15 12 9 6 5 4 4 4 5 5 5 4 4 4 4 3 3 3 3 3 3 4 4 5 6 7 8 9 10 11 12 13 14 14 14 14 14 14 14 14 15 16 18 19 22 25 29
64 63 62 62 62 62 63 65 67 68 69 70 71 72 72 73 73 72 70 68 64 60 56 53 51 48 45 43 40 38 35 34 31 29 27 24 22 19 16 12 9 7 5 4 4 4 5 5 5 4 4 4 3 3 3 3 3 3 3 4 4 5 6 7 8 9 10 11 12 13 14 14 14 15 15 15 16 16 17 18 20 22 25 28 32 36
64 63 62 62 62 63 65 67 68 70 70 71 71 71 71 72 71 70 69 67 64 60 56 53 50 47 44 42 39 37 35 33 30 28 26 23 19 16 13 10 7 6 5 4 5 5 5 5 4 4 4 3 3 3 3 3 3 3 4 4 5 6 7 8 10 11 12 12 13 14 14 15 15 15 15 16 17 18 19 21 23 26 29 33 37 41
64 63 62 62 63 65 67 69 70 71 72 71 71 70 70 70 69 68 67 65 62 60 56 52 49 46 43 40 38 36 34 32 29 27 24 20 17 13 10 8 6 5 5 5 5 5 5 5 4 4 3 3 3 3 3 3 3 4 4 5 6 7 8 10 11 12 13 14 14 15 15 15 15 16 16 17 18 19 20 22 25 29 33 37 41 45
63 62 62 64 66 68 70 72 73 73 72 72 71 71 70 69 68 67 66 63 60 58 55 51 48 44 41 39 36 34 33 30 28 25 22 18 14 11 8 7 6 6 6 6 6 5 5 4 4 4 3 3 3 3 3 3 4 4 5 6 7 8 10 11 12 13 14 15 15 16 16 16 16 17 17 18 19 20 22 25 28 33 37 42 46 49
63 63 64 67 69 71 73 73 73 73 73 72 71 71 70 69 68 66 64 61 59 56 53 50 47 44 40 37 35 33 31 29 26 23 19 15 12 9 7 6 6 6 7 6 6 5 4 4 4 3 3 3 3 3 3 4 4 5 6 7 8 10 11 12 13 14 15 15 16 16 16 16 17 17 18 19 20 22 24 28 32 36 42 46 50 51
64 65 68 71 73 74 75 75 75 74 73 72 71 70 69 68 66 65 62 59 56 54 51 49 46 43 39 36 34 31 29 26 23 20 16 12 10 7 6 6 6 7 7 6 5 5 4 4 3 3 3 3 3 3 4 4 5 6 7 8 9 11 12 13 14 15 15 15 15 16 16 16 17 17 18 19 21 23 26 29 34 39 44 48 50 51
66 68 72 74 76 76 76 76 76 75 73 72 71 69 68 66 64 62 60 57 54 52 49 46 43 41 38 35 32 30 27 24 20 17 13 10 8 6 6 6 6 7 6 6 5 4 4 3 3 3 3 3 3 4 4 5 6 7 8 9 11 12 13 14 15 15 16 16 16 16 16 16 16 17 18 19 21 23 26 31 35 40 45 48 50 49
69 72 75 76 77 78 77 77 76 75 73 72 70 68 67 65 63 60 58 55 53 50 47 44 41 38 36 34 31 27 24 20 17 13 10 8 7 6 6 6 7 6 6 5 4 4 3 3 3 3 3 3 4 4 5 6 7 8 9 11 12 13 14 15 16 16 16 16 16 17 17 17 17 18 19 20 23 26 29 33 38 43 46 48 49 48
73 76 77 78 79 78 78 77 76 74 73 71 70 68 65 63 61 59 56 54 51 47 44 42 39 36 34 31 28 25 21 17 13 10 7 6 6 6 6 6 6 6 5 4 4 4 3 3 3 3 3 4 4 5 6 7 8 9 11 12 14 15 16 17 17 18 18 18 19 19 19 20 20 21 22 24 26 29 33 37 41 45 47 48 48 47
77 78 79 79 79 79 78 77 75 74 72 71 69 67 64 61 59 57 55 52 49 46 43 40 37 35 32 28 25 21 17 13 9 7 6 5 5 6 6 6 6 5 4 4 4 3 3 3 3 3 4 4 5 6 7 8 10 11 13 14 16 17 18 19 20 21 21 22 22 23 24 24 25 26 27 29 32 35 38 41 43 46 47 47 47 45
80 80 80 79 79 78 78 76 75 73 71 70 68 65 63 60 58 56 53 51 48 45 42 39 36 33 30 26 22 17 13 9 7 5 5 5 6 6 6 5 5 4 4 4 3 3 3 3 3 4 4 5 6 7 8 10 11 13 15 17 18 20 21 22 23 24 25 26 27 28 29 30 31 32 33 35 37 39 41 42 43 44 45 45 45 44
82 81 80 79 79 78 77 75 74 72 70 68 66 63 61 59 57 54 52 50 47 44 41 38 34 31 27 23 18 13 9 6 5 4 5 5 5 6 5 5 4 4 4 3 3 3 3 4 4 5 5 6 8 9 10 12 14 16 18 19 21 23 24 25 26 28 29 30 31 32 33 34 35 36 38 39 40 40 41 41 41 41 42 43 43 43
82 81 80 79 78 77 76 74 72 71 68 66 63 61 59 57 55 53 51 48 45 42 39 36 32 28 24 19 14 10 6 5 4 4 5 5 5 5 5 4 4 4 3 3 3 3 4 4 5 6 7 8 9 11 13 14 16 18 20 22 23 25 26 27 28 29 31 32 33 34 35 37 38 39 39 40 39 39 39 38 38 38 39 41 42 43
82 81 80 79 78 76 75 73 71 68 66 64 62 60 58 56 54 52 49 46 43 40 37 34 29 25 20 15 10 7 5 4 4 5 5 6 5 5 4 4 4 3 3 3 3 4 4 5 6 7 8 10 11 13 15 17 18 20 22 23 25 26 26 27 28 29 30 31 33 34 35 36 37 38 38 38 37 36 35 35 35 36 38 40 43 44
82 81 80 78 77 75 73 71 69 66 64 61 60 58 56 54 52 49 46 43 40 37 34 30 26 21 15 11 8 5 4 4 5 5 5 5 5 4 4 4 3 3 3 3 4 4 5 6 8 9 10 12 13 15 17 18 20 21 22 23 24 25 25 26 26 27 28 30 31 32 34 35 35 35 35 35 34 33 33 33 35 37 40 43 46 49
81 80 79 77 76 74 72 69 67 64 62 60 58 57 55 53 50 47 44 41 37 34 31 26 22 17 12 9 6 5 5 5 5 6 5 5 4 4 4 4 3 3 3 3 4 5 6 8 9 11 12 13 15 16 17 18 19 20 21 22 22 23 23 24 25 26 27 28 29 30 32 32 33 33 33 32 32 33 33 35 38 41 44 48 51 55
81 79 78 76 74 72 70 67 65 62 60 59 57 56 54 51 48 45 42 39 35 31 27 22 18 13 9 7 6 5 5 5 6 6 5 5 4 4 4 3 3 3 3 4 5 6 8 9 10 12 14 14 15 15 16 17 18 19 20 21 21 22 23 23 24 26 27 28 29 30 31 32 32 32 33 33 34 36 38 40 44 47 51 54 58 62
80 78 77 75 73 70 68 65 63 61 59 58 56 54 52 49 46 43 40 37 33 28 23 18 13 10 7 6 6 6 6 6 5 5 5 4 4 4 3 3 3 3 3 4 5 7 9 10 11 12 13 14 14 15 15 16 17 18 20 21 22 23 24 25 26 28 29 30 31 32 33 34 34 35 36 38 40 42 45 48 51 54 57 60 64 67
79 77 75 73 71 68 66 64 62 60 58 57 55 52 50 47 44 41 37 33 29 24 19 14 10 7 6 6 6 6 6 5 5 5 4 4 4 4 3 3 3 3 4 5 6 7 9 10 11 11 12 13 14 15 16 17 18 20 22 23 25 26 27 28 30 32 33 34 35 36 37 38 39 40 42 44 46 49 51 53 56 58 61 64 67 70
77 75 73 71 69 67 64 63 61 59 58 55 53 50 47 44 42 38 34 30 25 19 14 10 7 5 5 5 6 6 6 5 5 4 4 4 4 3 3 3 3 4 4 5 6 7 9 10 11 11 12 13 15 17 18 19 21 23 25 26 27 29 30 32 34 36 37 38 39 40 40 41 43 44 46 47 49 51 52 53 55 57 60 63 65 66
76 74 72 69 67 65 63 62 60 58 56 54 51 48 45 42 39 35 31 26 20 15 10 7 5 5 5 5 5 5 5 5 4 4 4 4 3 3 3 3 4 4 5 6 6 7 8 9 10 12 14 16 17 19 21 22 24 25 27 28 29 31 32 34 36 38 39 39 39 40 40 41 42 43 44 45 45 46 46 47 48 50 53 55 56 56
74 72 70 68 66 64 62 61 59 57 55 52 49 46 43 40 36 32 27 21 15 10 7 5 5 5 5 5 6 5 5 5 4 4 4 4 3 3 3 4 4 5 6 6 7 7 7 8 10 13 16 18 20 22 23 24 25 26 27 29 30 31 32 34 35 36 36 36 36 36 36 36 36 36 36 36 36 36 36 37 38 40 43 44 45 44
73 71 68 66 64 63 62 60 58 56 53 51 48 44 41 37 33 28 22 16 11 7 5 5 5 5 5 5 5 5 5 4 4 4 4 3 3 3 4 4 5 5 6 7 7 8 8 9 11 13 16 19 21 22 23 24 25 26 26 27 28 29 29 30 31 31 31 30 30 29 29 28 28 27 27 26 26 27 27 28 30 32 34 35 35 35
71 69 67 65 64 63 61 60 57 55 52 49 46 43 39 34 29 23 17 12 8 6 5 5 5 5 5 5 5 5 5 4 4 4 3 3 3 4 4 5 5 6 6 7 8 8 10 11 12 14 16 19 21 22 22 22 23 24 24 24 25 25 25 26 26 25 25 24 24 23 22 22 21 21 21 21 21 22 23 24 26 27 29 30 31 31
70 68 65 64 63 62 61 59 57 54 51 47 44 40 36 30 24 18 13 9 6 5 5 5 5 5 5 5 5 5 4 4 4 4 3 3 4 4 5 5 6 7 7 7 8 9 10 12 13 15 16 18 19 20 20 20 21 21 22 22 22 22 23 23 22 22 22 21 21 20 20 19 19 19 19 19 20 21 22 23 25 26 28 29 31 32
68 66 65 64 63 62 61 58 56 52 49 45 41 37 32 26 19 14 9 7 6 5 5 5 5 5 5 5 5 4 4 4 4 4 3 4 4 5 5 6 7 7 7 8 9 10 11 13 14 15 16 16 17 18 19 19 20 21 21 22 23 23 23 24 24 23 23 23 23 22 22 22 21 21 21 21 21 22 23 24 26 27 29 31 33 35
67 65 64 63 63 62 60 58 55 51 47 43 38 33 27 21 15 10 7 6 6 6 6 6 5 5 5 5 5 4 4 4 4 4 4 4 5 5 6 7 7 8 8 9 10 11 12 13 14 15 16 16 17 18 18 20 21 23 24 25 26 27 28 28 29 29 29 29 29 28 28 28 27 26 26 25 25 24 24 25 26 28 30 32 34 36
66 64 64 63 63 61 60 56 53 49 45 40 35 29 22 17 12 8 7 6 6 6 6 6 5 5 5 5 4 4 4 4 4 4 4 5 5 6 7 7 8 8 9 10 11 12 13 13 14 15 16 17 18 19 20 22 24 26 29 30 31 33 34 35 35 36 37 37 37 37 37 36 35 34 33 32 30 29 28 27 28 29 30 33 35 37
65 64 63 63 62 60 58 55 51 46 42 36 30 24 18 13 10 7 6 6 6 6 6 6 5 5 5 5 4 4 4 4 4 4 5 5 6 7 7 8 8 9 11 12 12 13 13 14 15 16 17 19 20 22 23 25 28 30 33 35 36 38 39 40 41 42 43 44 45 45 45 45 44 43 42 40 38 35 33 32 31 30 31 33 35 37
64 64 63 63 61 59 56 52 48 43 38 32 26 20 14 10 8 7 7 7 6 6 6 6 5 5 5 4 4 4 4 4 4 5 5 6 7 8 8 9 9 10 12 13 13 13 14 15 17 18 20 22 23 25 26 28 30 33 35 38 40 42 43 44 45 46 47 48 49 50 51 51 51 51 51 49 47 44 41 38 36 34 33 34 34 35
64 63 63 62 60 57 53 49 45 40 34 27 21 15 11 8 7 7 7 7 6 6 6 6 5 5 5 4 4 4 4 4 5 5 6 7 8 8 9 10 11 12 13 13 14 14 15 17 19 22 24 25 26 28 29 31 32 34 36 39 42 44 45 46 47 47 48 49 50 51 53 53 54 55 55 55 54 52 50 47 43 40 37 35 35 34
64 63 63 61 58 54 50 46 41 35 29 22 16 11 8 7 7 7 7 7 7 6 6 6 5 5 5 4 4 4 4 5 5 6 7 8 8 9 10 11 12 13 13 14 14 16 18 20 23 25 27 29 30 31 32 33 34 35 37 40 42 44 46 47 48 49 49 50 50 50 51 52 53 54 55 56 57 57 56 54 52 48 44 41 38 35
64 63 62 60 56 52 47 43 37 31 24 17 12 9 7 6 6 7 7 7 7 6 6 6 5 5 4 4 4 4 5 5 6 7 8 9 9 10 11 12 13 14 14 14 16 18 20 24 27 29 31 32 33 34 35 36 37 38 39 41 43 45 47 49 50 50 51 51 51 51 50 51 51 51 51 53 54 56 57 58 57 55 52 48 44 40
64 63 61 58 54 49 44 39 32 25 18 13 9 7 6 6 6 6 7 7 6 6 6 5 5 5 4 4 4 4 5 6 7 8 9 9 10 11 12 13 14 15 15 16 18 20 23 27 31 34 35 35 36 37 38 39 40 42 43 44 45 47 50 51 51 52 53 53 53 52 52 51 50 49 48 48 49 51 53 56 58 59 58 55 51 46
64 62 59 55 51 46 41 34 26 19 13 9 7 6 6 6 6 6 6 6 6 6 5 5 5 4 4 4 4 5 6 8 9 9 10 10 11 13 14 14 15 16 17 19 21 23 26 30 34 38 40 40 41 41 41 42 44 45 47 47 48 50 51 51 52 53 54 55 55 56 55 54 52 50 47 45 44 45 47 51 55 58 60 59 57 52
63 60 57 53 48 42 36 28 21 14 9 7 6 6 6 6 6 6 6 6 6 5 5 5 4 4 4 4 5 6 8 9 10 10 11 12 13 14 15 16 16 18 20 23 25 27 28 31 35 40 44 46 46 46 45 45 47 49 50 51 51 51 51 51 51 53 55 57 58 59 59 58 56 53 50 46 43 42 43 46 50 54 58 60 60 58
61 59 55 50 44 37 30 22 16 10 7 6 6 6 6 6 6 6 6 6 6 5 5 5 4 4 4 5 6 7 9 10 10 11 12 13 14 15 16 17 18 21 24 27 29 31 31 33 36 40 45 49 51 52 50 50 50 52 54 54 54 53 52 52 52 53 55 58 60 61 61 61 60 58 55 51 46 43 42 43 45 49 53 58 61 61
60 57 52 46 39 32 24 17 12 8 6 6 6 6 7 7 6 6 6 6 5 5 5 4 4 4 4 5 6 8 9 10 10 11 12 13 15 16 17 18 21 25 30 33 34 35 34 35 37 40 45 50 53 55 55 54 54 55 56 56 55 55 54 53 53 54 55 58 60 62 63 63 63 62 60 57 53 48 45 43 43 44 47 52 57 61
58 54 48 41 34 26 18 13 9 7 6 6 7 7 7 7 6 6 6 6 5 5 4 4 4 4 5 6 7 9 10 10 10 11 12 13 14 16 18 21 25 30 35 38 39 40 39 38 38 40 43 48 52 56 59 59 58 58 57 56 56 56 55 55 55 55 56 58 60 62 64 65 66 65 64 62 60 56 51 47 44 43 43 46 51 57
55 50 43 36 28 20 13 10 8 7 7 7 7 7 7 7 6 6 6 5 5 5 4 4 4 4 5 7 8 10 10 10 11 11 12 13 14 16 19 24 29 34 39 43 45 46 45 43 42 42 43 46 50 55 60 61 60 59 58 57 56 57 57 57 57 57 57 58 59 60 62 64 65 66 66 65 64 62 58 53 49 45 43 44 47 52
51 45 38 30 22 15 10 8 7 7 7 7 7 7 7 6 6 6 6 5 5 4 4 4 4 5 6 8 9 10 11 11 11 11 12 13 15 17 20 25 30 35 41 45 49 51 51 50 47 45 43 44 47 51 56 58 60 60 59 58 58 58 59 60 60 59 59 58 58 58 60 61 63 65 66 67 66 65 62 59 55 51 47 45 46 48
47 40 32 24 17 11 8 7 7 7 7 7 7 7 7 6 6 6 5 5 4 4 4 4 5 6 8 9 10 11 11 11 11 12 13 14 16 18 22 26 31 35 39 44 49 51 53 53 51 49 45 43 43 45 48 52 55 58 60 60 61 61 62 63 62 62 61 60 58 57 56 57 59 61 64 66 67 67 65 63 60 56 53 49 47 47
Wind_Speed
38 39 41 42 43 44 44 45 45 46 47 47 48 48 49 50 50 50 50 51 51 51 52 53 53 54 54 55 56 57 58 59 60 61 62 63 65 66 67 69 70 72 73 75 76 77 78 79 80 81 81 82 83 84 85 86 87 88 89 90 91 91 92 92 91 90 89 87 84 81 77 73 68 64 59 54 51 48 46 45 44 43 43 42 42 42
39 41 42 43 44 44 45 45 46 46 47 48 49 49 50 50 50 50 51 51 51 52 52 53 53 54 55 56 57 58 59 60 61 62 63 64 66 67 69 70 71 73 74 76 77 78 79 80 81 81 82 83 84 85 85 86 87 88 90 91 91 92 92 92 91 89 87 84 81 78 74 69 65 60 55 51 48 46 45 44 43 43 42 42 42 42
41 42 43 44 44 45 45 46 46 47 48 48 49 50 50 50 50 50 51 51 52 52 52 53 53 54 55 56 57 58 59 60 61 63 64 65 67 68 70 71 73 74 75 77 78 79 80 80 81 82 83 84 84 85 86 87 88 89 90 91 92 92 92 91 89 88 85 82 78 74 70 65 61 56 52 49 47 45 44 43 43 42 42 42 42 42
42 43 44 44 45 45 46 47 47 48 49 49 50 50 50 50 50 50 50 51 51 52 53 53 54 55 56 57 58 59 60 61 62 63 65 66 68 69 71 72 74 75 76 77 79 79 80 81 82 83 83 84 85 86 87 88 89 90 91 91 91 91 91 89 88 85 82 79 75 70 66 61 57 53 50 47 46 44 43 43 42 42 42 42 42 43
42 43 44 45 45 46 46 47 48 49 50 50 50 50 50 50 50 50 51 51 51 52 53 53 54 55 56 57 58 59 61 62 63 64 66 67 69 70 72 73 75 76 77 78 79 80 81 82 82 83 84 85 86 87 88 89 90 91 91 91 91 90 89 87 85 82 79 75 71 66 62 57 54 50 48 46 45 44 43 43 42 42 42 42 42 43
43 44 44 45 46 46 47 48 49 50 50 51 51 50 50 50 50 50 51 51 52 53 53 54 55 55 56 57 59 60 61 63 64 65 67 68 70 71 73 75 76 77 78 79 80 80 81 82 83 84 84 85 86 88 89 90 91 92 92 91 90 89 87 85 82 79 75 71 67 62 58 54 51 48 47 45 45 44 43 43 42 42 42 42 43 43
44 44 44 45 46 47 48 49 50 50 51 51 51 51 50 50 50 50 51 51 52 53 54 55 55 56 57 58 60 61 62 64 65 66 68 69 71 73 74 76 77 78 79 79 80 81 82 82 83 84 85 86 87 89 90 91 92 92 91 91 89 87 85 82 79 75 71 67 62 58 54 51 49 47 46 45 44 44 43 43 42 42 42 43 43 43
44 44 44 45 46 48 49 50 50 51 51 51 50 50 50 50 50 50 51 52 52 53 54 55 56 57 58 59 60 62 63 65 66 68 69 70 72 74 75 77 78 79 79 80 81 81 82 83 84 84 85 87 88 90 91 92 92 92 91 89 88 85 82 79 75 71 67 62 58 54 51 49 47 46 45 45 44 44 44 43 43 43 43 43 43 43
44 44 45 46 47 49 50 51 51 51 51 51 50 49 49 50 50 51 52 52 53 53 55 56 57 58 59 60 61 63 64 66 67 69 70 71 73 75 76 78 79 79 80 81 81 82 82 83 84 85 86 88 89 90 91 92 92 91 89 87 85 82 79 76 72 67 63 58 54 50 48 47 46 46 45 45 45 44 44 43 43 43 43 43 43 43
44 44 45 47 48 49 51 52 52 52 51 51 50 49 48 48 50 51 52 53 54 54 55 56 57 59 60 61 62 64 65 67 68 70 71 72 74 75 77 78 79 80 81 81 82 82 83 84 85 86 87 89 90 91 91 91 90 89 87 85 82 79 76 72 68 63 59 55 51 49 47 46 45 45 45 45 45 44 44 44 43 43 43 43 43 44
44 45 46 48 49 50 51 52 52 52 52 51 50 49 48 48 49 50 52 53 54 55 56 57 57 58 60 62 63 65 66 68 70 71 73 74 75 76 78 79 80 80 81 82 82 83 83 85 86 87 88 90 91 91 91 90 89 87 85 82 79 75 72 68 64 59 55 52 50 48 47 46 46 46 46 46 45 45 44 44 44 44 44 44 44 44
44 45 47 49 50 51 52 52 52 52 51 50 50 49 49 49 49 50 51 53 54 55 56 58 58 59 59 61 63 65 67 69 71 73 74 75 77 78 79 80 80 81 81 82 83 84 84 86 87 88 90 90 91 91 90 89 87 85 82 79 75 72 68 64 60 56 53 50 49 48 47 47 47 47 47 47 46 46 45 45 44 44 44 45 45 45
45 46 48 50 51 52 52 52 52 51 50 49 49 49 49 50 50 51 52 53 54 55 56 58 59 60 61 62 63 65 68 70 72 74 75 76 77 78 79 80 81 82 82 83 84 85 86 87 88 90 91 91 91 90 89 87 85 82 79 75 72 68 64 60 56 53 51 50 49 49 48 48 48 48 48 47 47 46 46 45 45 45 45 45 45 45
46 48 49 51 52 52 52 52 51 50 49 49 48 49 49 50 51 51 52 53 54 55 56 58 60 61 62 63 64 66 68 70 73 75 76 77 78 78 79 80 81 82 82 83 84 86 87 88 89 91 91 91 91 89 87 85 82 79 76 72 68 64 61 57 54 52 50 49 49 49 49 49 49 49 48 48 47 46 46 45 45 45 44 45 45 45
47 49 51 52 52 52 51 51 50 49 49 48 48 49 49 50 51 51 52 54 55 56 57 58 60 62 63 64 65 66 69 71 73 75 76 78 78 79 79 80 81 82 83 84 85 87 89 90 90 91 91 91 89 88 85 83 80 76 73 69 65 61 58 55 53 51 50 50 50 50 50 50 50 49 48 48 47 46 45 45 44 44 44 44 44 45
48 50 52 52 52 51 50 50 49 49 49 49 48 49 49 50 51 52 53 54 55 56 57 58 60 62 64 66 66 67 68 71 73 75 76 78 79 79 79 80 81 83 84 85 87 88 90 91 91 91 91 90 88 86 83 80 77 73 69 66 62 59 56 54 53 52 51 51 51 51 51 51 50 50 49 48 47 46 45 45 44 44 44 44 44 45
50 51 52 52 52 50 50 49 48 48 48 48 49 49 50 51 52 53 53 54 56 57 58 59 60 62 64 66 68 68 69 71 73 74 76 77 78 79 79 80 81 83 85 86 88 89 91 91 91 91 90 88 86 83 80 77 74 70 66 63 60 57 56 54 53 53 52 52 52 52 52 51 51 50 49 48 47 46 46 45 44 44 44 44 45 45
51 52 52 52 50 49 49 48 48 48 48 48 49 50 51 51 52 53 54 55 56 57 59 60 61 62 64 66 68 69 70 71 72 74 75 77 78 79 80 80 82 84 86 88 89 90 91 91 91 90 88 86 84 81 78 74 71 67 64 61 59 57 56 55 55 54 54 54 54 53 53 52 51 50 49 48 47 47 46 45 44 44 44 44 45 45
51 51 51 50 49 48 48 47 47 48 48 49 49 50 51 52 53 54 55 56 57 58 60 61 63 64 65 67 68 69 70 71 72 73 75 76 78 79 80 81 83 85 87 89 90 91 91 91 90 88 86 84 81 78 75 71 68 65 62 60 59 58 57 57 56 56 56 55 55 54 53 52 51 50 49 48 47 46 45 45 44 44 44 44 45 45
51 51 50 49 48 48 47 47 47 47 48 49 50 50 51 52 53 54 55 57 58 59 61 62 64 65 67 68 69 70 71 71 72 74 75 76 77 79 80 82 84 86 88 90 91 91 90 89 88 86 84 81 78 75 72 69 66 64 62 61 60 59 59 59 58 58 57 56 55 54 53 52 51 50 48 47 46 46 45 45 44 44 44 44 44 45
51 50 49 48 48 47 47 47 47 47 48 49 50 51 51 52 53 55 56 57 59 60 62 64 65 67 68 69 70 71 71 72 73 74 75 76 78 79 81 82 84 86 88 90 90 90 89 87 85 83 80 78 75 72 69 67 65 63 62 62 61 61 61 60 60 59 58 57 56 54 53 52 50 49 48 47 46 45 45 44 44 44 44 44 44 45
50 49 49 48 47 46 46 47 47 47 48 49 50 51 52 53 54 55 56 58 59 61 63 64 66 68 69 70 71 72 72 73 73 74 75 76 78 80 81 83 85 87 88 88 89 88 87 84 82 79 77 75 72 70 68 66 65 64 63 63 63 62 62 62 61 60 59 57 56 55 53 51 50 49 47 46 46 45 44 44 44 43 43 43 43 44
49 49 48 48 47 46 46 47 47 48 49 49 50 51 52 53 54 55 57 58 60 61 63 65 67 69 70 71 72 73 73 73 74 75 75 76 78 80 82 84 85 87 87 87 86 85 83 81 79 76 74 72 70 68 67 66 65 65 65 64 64 64 63 62 61 60 59 57 56 54 53 51 50 48 47 46 45 44 44 43 43 42 42 42 42 42
49 48 48 47 46 46 46 47 47 48 49 50 50 51 52 53 54 55 57 58 60 62 64 66 68 70 71 72 73 73 74 74 74 75 76 78 80 81 83 84 85 86 86 85 83 81 79 78 75 73 71 70 68 68 67 66 66 66 65 65 64 64 63 62 61 59 58 57 55 53 52 50 49 48 47 46 45 44 43 42 41 41 41 40 40 40
48 47 47 46 46 46 46 47 48 48 49 50 51 51 52 54 55 56 58 59 61 63 65 66 68 70 71 72 73 74 74 74 75 75 77 79 81 83 84 85 85 85 84 83 81 78 76 74 73 71 69 68 67 67 67 66 66 66 65 65 64 63 62 60 59 57 56 54 53 52 50 49 48 46 45 44 43 42 41 41 40 39 39 39 38 38
47 46 46 45 45 46 46 47 48 49 49 50 51 51 53 54 56 57 59 60 62 63 65 67 68 70 71 72 73 74 74 75 75 76 78 80 82 84 85 86 85 84 82 80 78 74 72 71 70 69 68 67 67 66 66 66 65 64 64 63 62 60 59 57 56 54 53 52 50 49 48 47 45 44 43 42 41 41 40 39 38 37 37 37 36 35
46 46 45 45 46 46 47 48 48 49 50 50 51 52 53 55 56 58 60 61 63 64 65 67 68 69 71 72 73 73 74 75 76 78 79 81 83 84 85 86 84 82 80 77 74 71 68 68 68 68 67 67 66 65 64 64 63 62 61 59 58 57 55 54 52 51 49 48 47 46 45 44 43 42 41 40 39 38 38 37 36 36 35 34 34 33
45 45 45 45 46 46 47 48 48 49 50 50 51 52 54 55 57 59 60 62 63 65 66 67 68 69 70 71 73 74 75 76 77 79 81 82 83 84 85 84 83 80 77 75 72 69 66 64 65 66 66 66 65 63 62 61 59 58 57 56 55 53 52 50 49 47 46 45 44 43 42 41 40 40 39 38 37 37 36 35 35 34 33 32 31 30
45 44 45 45 46 47 47 48 49 49 50 51 52 53 55 56 58 59 61 63 64 65 66 67 68 69 70 71 73 74 75 77 78 80 81 83 84 85 84 83 81 78 75 73 71 68 65 63 62 62 62 63 62 60 59 57 56 54 53 52 51 50 49 47 46 45 44 43 42 41 40 39 39 38 37 36 36 35 34 34 33 32 31 30 29 28
44 44 45 45 46 47 47 48 49 49 50 51 53 54 56 57 58 60 62 63 64 66 67 68 69 69 70 71 73 75 77 78 79 81 82 83 84 84 83 81 79 77 73 70 69 67 65 63 61 59 58 57 57 56 55 54 52 51 50 50 49 47 46 45 44 43 42 41 40 40 39 38 37 37 36 35 34 34 33 32 31 30 29 28 27 26
44 44 45 45 46 47 47 48 49 50 51 52 53 55 57 58 60 61 63 64 65 66 67 68 69 70 71 72 73 75 77 79 81 82 83 83 83 83 81 79 77 75 73 69 66 64 64 62 60 57 54 53 52 52 51 50 50 49 48 47 46 45 44 43 42 41 40 40 39 39 38 37 36 35 35 34 33 32 31 30 29 27 26 26 25 25
44 44 45 46 46 47 47 48 49 50 51 53 54 56 57 59 60 62 63 64 65 66 67 68 70 71 72 72 74 75 78 80 82 83 83 82 82 81 79 76 74 73 71 69 65 62 60 58 56 54 51 49 48 48 48 48 47 46 46 45 44 43 42 41 40 40 39 39 38 37 37 36 35 34 33 32 31 30 29 28 27 26 25 25 24 24
44 44 45 46 46 47 48 49 50 51 52 54 55 57 58 60 61 63 64 65 66 67 68 69 70 71 72 74 75 77 79 81 82 83 83 82 80 79 77 74 72 70 69 68 65 62 59 55 52 49 47 46 45 45 45 45 45 44 43 43 42 41 40 39 39 38 38 37 37 36 35 34 33 32 31 31 30 29 28 27 26 25 24 24 24 23
44 45 45 46 47 47 48 49 50 51 53 54 56 58 59 61 62 64 65 66 67 68 68 69 70 71 73 75 77 79 81 82 83 83 82 80 78 76 75 72 70 68 67 65 63 60 57 53 49 46 45 44 43 43 43 43 42 42 41 40 40 39 38 38 37 37 37 36 36 35 34 33 32 31 30 30 29 28 27 26 25 24 24 23 23 23
44 45 45 46 47 47 48 49 51 52 54 55 57 59 60 62 63 64 66 67 68 69 69 70 70 71 73 75 77 79 81 82 83 82 81 78 76 74 72 70 68 66 64 63 60 57 53 50 47 44 42 42 41 41 41 41 40 40 39 39 38 38 37 37 37 37 36 36 35 34 34 33 32 31 30 29 28 27 26 25 25 24 24 23 23 23
44 45 45 46 47 48 49 50 51 53 55 56 58 59 61 62 64 65 66 67 68 69 70 71 71 73 74 76 77 79 81 82 82 81 79 76 73 71 69 68 66 64 62 60 57 54 50 46 44 42 40 39 39 39 39 39 38 38 38 38 37 37 37 37 37 36 36 36 35 34 34 33 32 31 30 29 28 27 26 25 24 24 23 23 23 23
44 45 45 46 47 48 49 51 52 54 55 57 59 60 62 63 64 65 67 68 68 69 70 71 73 74 75 77 79 80 81 81 80 79 76 73 71 68 66 65 64 62 59 57 54 51 47 44 41 40 39 38 37 37 37 37 37 37 37 37 37 37 37 37 37 37 36 36 35 34 34 33 32 31 30 30 28 27 26 25 24 23 23 22 22 22
44 45 46 46 47 48 50 51 53 54 56 58 59 61 62 64 65 66 67 68 68 69 71 72 74 75 77 79 80 81 81 80 78 76 73 71 68 66 64 63 62 60 57 54 51 48 45 41 39 38 37 37 36 36 36 36 36 37 37 37 37 37 37 37 37 37 37 36 36 35 34 33 32 32 31 30 29 28 26 25 24 23 22 22 22 22
44 45 45 46 47 49 50 52 53 55 57 58 60 61 62 64 65 66 67 68 69 70 71 73 75 76 78 80 81 81 80 78 76 73 70 68 66 64 62 61 59 57 55 52 49 45 43 40 38 37 36 36 36 36 36 36 36 36 37 37 37 37 37 37 37 37 37 36 35 35 34 33 32 32 31 30 29 28 27 25 24 23 22 22 21 21
44 45 46 47 48 49 51 52 54 55 57 58 60 61 63 64 65 66 67 68 69 70 72 74 76 78 79 80 80 80 78 76 73 70 67 65 63 62 60 58 56 54 52 50 47 44 41 39 38 37 36 36 36 36 36 36 36 36 37 37 37 37 38 37 37 37 36 36 35 34 33 33 32 31 30 29 29 28 27 26 25 23 22 22 21 20
44 45 46 47 48 50 51 53 54 56 57 59 60 61 63 64 65 66 68 69 70 71 73 75 77 79 80 81 80 77 75 72 70 67 65 63 62 60 58 56 54 51 49 47 44 42 40 39 38 38 38 37 37 37 37 37 36 36 37 37 37 38 38 37 37 37 36 35 35 34 33 32 31 30 30 29 28 27 26 25 24 23 23 22 21 20
44 45 46 47 49 50 52 53 55 56 57 59 60 61 63 64 65 66 67 69 70 72 74 76 78 79 80 80 79 76 73 69 66 64 63 61 60 58 56 54 51 49 46 44 43 41 40 39 39 39 39 39 38 38 37 37 37 36 37 37 38 38 38 38 37 37 36 35 34 33 32 31 30 29 29 28 27 26 26 25 24 23 23 22 21 21
44 45 46 48 49 51 52 54 55 57 58 59 61 62 63 64 65 66 67 68 70 72 74 76 77 78 78 77 76 73 70 67 64 62 61 60 58 56 54 52 49 47 44 42 41 40 40 40 40 40 40 40 39 38 37 37 37 36 37 37 38 38 38 38 38 37 36 35 34 33 31 30 29 28 27 27 26 26 25 24 24 23 22 22 21 21
44 46 47 48 50 52 53 54 56 57 58 60 61 62 63 64 65 66 67 69 71 73 74 76 77 77 76 74 72 69 67 65 63 61 60 58 56 54 52 50 48 45 43 41 40 40 40 41 41 41 41 40 39 38 37 37 36 36 37 37 38 38 38 38 38 37 36 35 34 33 31 30 28 27 26 26 25 25 24 24 23 23 22 22 21 20
45 46 47 49 51 52 54 55 56 58 59 60 61 62 64 65 66 67 68 70 72 73 75 75 75 75 73 71 68 65 63 62 60 59 58 57 55 53 50 48 46 44 43 42 41 40 40 41 41 41 41 40 39 38 37 36 36 37 37 38 38 38 38 38 37 37 36 35 34 33 31 30 28 27 25 25 24 24 23 23 22 22 22 21 20 20
45 46 48 50 51 53 54 55 57 58 59 60 61 63 64 65 66 67 69 70 72 74 75 75 74 72 70 67 64 62 60 59 58 57 56 55 53 51 48 46 44 43 42 42 42 41 41 41 41 41 40 40 39 38 37 37 36 37 38 38 39 39 39 38 37 36 35 35 34 32 31 30 28 26 25 24 23 22 22 22 22 21 21 20 19 19
45 47 49 50 52 53 55 56 57 58 60 61 62 63 64 65 66 68 70 71 73 74 75 75 73 70 67 64 61 58 56 55 55 54 53 52 50 48 46 45 43 43 42 42 43 42 42 41 41 40 39 38 38 38 37 37 37 37 38 39 39 39 39 38 37 36 35 34 33 32 31 30 29 27 25 24 22 22 21 21 21 20 20 20 19 18
46 48 49 51 52 54 55 56 58 59 60 61 62 63 64 65 67 69 71 72 73 74 74 73 71 69 65 62 58 56 54 53 52 51 50 48 46 44 43 42 42 42 43 43 43 43 42 41 40 39 38 37 37 37 37 38 38 38 39 39 39 39 38 38 37 36 35 34 33 32 31 30 29 27 26 24 22 21 20 20 19 19 19 19 19 18
46 48 50 51 53 54 55 57 58 59 60 61 62 63 65 66 67 69 71 72 73 73 72 71 69 66 63 59 57 55 53 52 51 49 47 45 42 41 40 40 41 41 42 43 43 43 42 41 40 38 37 37 37 37 37 38 39 39 39 39 39 39 38 37 36 35 34 33 32 31 31 30 29 28 26 24 22 21 20 19 18 18 18 18 18 18
47 48 50 51 53 54 56 57 58 59 60 61 62 64 65 67 69 70 72 73 73 72 71 68 66 63 60 57 55 53 52 51 50 48 45 42 40 38 37 38 38 40 41 42 42 42 42 42 40 39 37 37 37 37 38 39 39 40 40 40 39 39 38 37 36 35 33 32 31 31 30 29 29 28 27 25 23 21 20 19 18 17 17 17 18 17
47 49 50 52 53 54 56 57 58 59 60 61 63 64 66 68 70 71 72 73 72 71 69 66 63 60 57 55 53 52 51 49 48 46 43 40 38 36 36 36 37 38 39 40 40 40 41 41 41 40 40 39 38 38 39 39 40 41 41 40 40 39 38 37 35 34 33 31 30 29 29 28 28 27 26 25 24 22 20 19 17 16 16 16 17 17
Wind_Direction
311 311 312 313 314 315 316 317 317 318 318 318 319 319 318 318 317 317 316 316 316 315 315 315 315 315 314 315 315 315 316 317 317 318 318 318 317 317 317 317 317 317 318 318 318 318 318 318 318 318 319 319 320 320 321 321 321 321 321 321 321 321 320 320 319 319 318 318 317 317 316 316 315 314 312 311 309 308 306 305 304 303 302 302 301 301
310 311 312 314 315 316 317 318 319 319 319 319 319 319 319 318 318 317 316 316 315 315 315 315 315 315 315 315 315 316 317 317 318 318 318 317 317 317 317 317 317 318 318 318 318 318 318 318 319 319 319 320 320 321 321 321 322 321 321 321 321 320 320 320 319 319 318 318 317 317 316 316 315 313 312 310 309 307 306 305 304 303 302 302 302 301
310 311 313 314 316 317 318 319 319 320 320 319 319 319 318 318 317 317 316 315 315 315 315 315 315 315 315 315 316 317 317 318 318 318 318 317 317 317 317 317 318 318 318 318 318 318 318 319 319 320 320 321 321 321 322 322 322 322 321 321 321 320 320 319 319 319 318 318 317 317 316 315 314 313 311 309 308 307 306 305 304 303 303 302 302 302
311 312 313 315 316 317 318 319 320 320 320 320 319 319 318 317 316 316 315 315 314 314 314 315 315 315 316 316 317 317 318 318 318 318 317 317 317 317 317 317 318 318 318 318 318 319 319 319 320 320 321 321 321 322 322 322 322 322 321 321 320 320 320 319 319 318 318 318 317 317 316 315 314 312 311 309 308 307 306 305 304 303 303 303 302 302
312 313 314 315 317 318 319 320 320 320 320 320 319 318 317 316 316 315 315 314 314 314 314 315 315 316 316 317 317 317 318 318 318 317 317 318 318 318 318 318 318 318 318 318 319 319 319 320 320 321 321 322 322 322 322 322 322 322 321 321 320 320 319 319 319 318 318 318 317 316 316 314 313 312 310 309 308 307 306 305 305 304 304 303 303 303
313 314 315 316 317 318 319 320 320 320 320 319 318 318 317 316 315 315 314 314 314 314 315 315 316 316 317 317 318 318 318 318 318 318 318 318 318 318 318 318 318 318 318 319 319 320 320 321 321 322 322 322 322 322 322 322 322 322 321 321 320 320 319 319 318 318 318 317 317 316 315 314 313 311 310 309 308 307 307 306 305 304 304 304 304 304
314 315 316 317 317 318 319 320 320 320 319 318 318 317 316 315 315 314 314 314 315 315 315 316 316 317 317 318 318 318 318 318 318 318 318 318 318 318 318 318 318 318 319 319 320 320 321 321 322 322 322 323 323 323 322 322 322 321 321 321 320 320 319 319 318 318 318 317 317 316 315 314 313 311 311 310 309 308 307 306 306 305 305 305 305 305
315 316 316 317 318 318 319 320 320 320 319 318 317 316 315 315 314 314 314 314 315 315 316 316 317 317 318 318 318 318 318 318 318 318 318 318 318 318 318 318 319 319 319 320 320 321 321 322 322 323 323 323 323 323 322 322 322 321 321 320 320 320 319 319 318 318 318 317 316 315 314 313 312 312 311 310 309 308 307 307 306 305 305 305 305 305
316 317 317 318 318 319 319 319 319 319 318 317 316 315 315 314 314 314 315 315 315 316 316 317 318 318 318 319 319 318 318 318 318 318 318 318 318 319 319 319 319 319 320 320 321 321 322 322 323 323 323 323 323 323 322 322 322 321 321 320 320 320 319 319 318 318 317 317 316 315 314 313 312 312 311 310 309 308 308 307 306 306 305 305 305 305
316 317 317 318 318 319 319 319 319 319 318 317 315 314 314 314 314 315 315 315 316 316 317 318 318 319 319 319 319 319 319 318 318 318 318 318 319 319 319 319 320 320 321 321 321 322 322 323 323 323 323 323 323 323 322 322 321 321 321 320 320 319 319 319 318 318 317 317 316 315 314 313 312 311 311 310 309 308 307 307 306 306 305 305 305 305
317 317 318 318 319 319 319 319 318 318 317 316 315 314 314 314 314 315 315 316 316 317 318 318 318 319 319 319 319 319 319 319 318 318 319 319 319 319 320 320 320 321 321 321 322 322 323 323 323 324 324 324 323 323 322 322 321 321 320 320 320 319 319 319 318 318 317 317 316 315 314 313 312 312 311 310 309 308 307 307 306 306 306 305 305 304
317 318 318 319 319 319 319 318 318 317 316 315 314 314 314 314 315 315 315 316 317 318 318 318 319 319 319 319 319 319 319 319 319 319 319 320 320 320 321 321 321 321 322 322 322 323 323 324 324 324 324 324 323 323 322 322 321 321 320 320 320 319 319 318 318 318 317 317 316 315 314 313 313 312 311 310 309 309 308 307 307 306 306 306 305 305
317 318 318 319 319 319 318 317 316 316 315 314 314 314 314 315 315 316 316 316 317 318 318 319 318 319 319 319 319 319 319 319 320 320 320 320 321 321 322 322 322 322 323 323 323 323 324 324 324 324 324 324 323 323 322 322 321 321 320 320 320 319 318 318 318 317 317 316 315 315 314 313 313 312 311 311 310 309 308 308 307 307 306 306 305 304
318 318 319 319 319 318 317 316 315 314 314 314 314 314 314 315 316 316 317 317 317 318 319 319 319 319 319 319 319 319 320 320 320 320 321 321 321 322 322 322 322 323 323 323 324 324 324 324 324 324 324 324 323 323 322 322 321 321 320 320 319 319 318 318 317 316 316 315 315 314 313 313 312 312 311 310 309 309 308 308 307 306 306 305 304 303
318 319 319 319 318 317 316 315 314 313 313 313 314 314 315 315 316 317 317 318 318 318 319 319 319 319 319 319 320 320 320 321 321 321 321 321 322 322 323 323 323 323 323 324 324 324 324 324 324 324 324 323 323 323 322 322 321 321 320 320 319 318 318 317 317 316 315 314 314 313 312 312 311 311 310 310 309 308 308 307 306 306 305 305 304 303
318 319 319 318 317 316 315 314 313 313 313 313 314 314 315 316 316 317 318 318 318 319 319 319 319 319 319 319 320 320 321 321 321 321 322 322 322 322 323 324 323 323 324 324 324 324 324 324 324 324 324 323 323 322 322 322 321 321 320 320 319 318 317 317 316 315 314 314 313 312 312 311 311 311 310 310 309 309 308 307 307 306 306 305 304 303
319 319 318 317 316 315 314 313 313 312 313 313 314 315 316 316 317 317 318 318 318 318 318 318 318 318 318 319 319 320 321 322 321 322 322 322 322 323 324 324 324 324 324 324 325 325 324 324 324 324 324 323 323 322 322 322 321 321 320 319 319 318 317 316 316 315 314 313 313 312 312 312 311 311 310 310 310 309 309 309 308 308 307 306 305 304
319 318 317 316 314 313 313 312 312 313 313 314 315 316 316 317 317 318 318 318 318 318 318 318 318 318 318 319 320 320 321 322 322 322 322 322 322 323 324 325 325 325 325 325 325 325 325 324 324 324 323 323 323 322 322 322 321 321 320 319 318 318 317 316 315 315 314 314 313 313 312 312 312 311 311 311 311 310 310 310 309 308 308 307 306 305
318 317 316 315 314 313 312 312 312 313 314 314 315 316 317 317 318 318 318 319 319 318 318 318 318 318 319 319 320 320 321 322 322 322 322 322 323 324 325 325 326 325 325 325 325 325 324 324 324 324 323 323 323 322 322 322 321 321 320 319 318 317 317 316 315 315 314 314 314 314 313 313 313 312 312 311 311 311 310 310 310 309 308 307 306 305
317 316 315 314 313 312 312 312 313 313 314 315 316 317 317 318 318 319 319 319 319 319 319 319 319 319 319 320 320 321 321 322 322 322 323 323 324 325 326 326 326 326 326 325 325 325 324 324 324 324 323 323 323 323 322 322 321 320 320 319 318 317 317 316 316 315 315 315 315 314 314 314 313 313 312 312 311 311 310 310 309 309 308 307 306 305
315 315 314 313 312 312 312 312 313 314 315 316 316 317 318 318 319 319 319 319 319 319 319 319 319 320 320 320 321 321 321 322 323 323 324 324 325 325 326 327 327 327 326 326 325 325 324 324 324 324 324 323 323 323 322 322 321 320 319 319 318 317 317 316 316 316 316 316 316 316 315 315 314 314 313 312 312 311 310 310 309 309 308 307 306 305
314 313 313 312 312 312 312 313 314 314 315 316 317 318 318 319 319 319 319 319 319 319 319 320 320 320 320 321 321 321 322 323 324 324 325 325 326 326 327 328 328 327 326 326 325 325 324 324 324 324 324 323 323 323 322 321 321 320 319 319 318 318 317 317 317 317 317 317 317 317 316 316 315 314 314 313 312 311 310 310 309 308 307 306 306 305
313 312 312 311 311 312 312 313 314 315 316 317 317 318 318 319 319 319 319 319 319 319 320 320 320 321 321 321 321 322 323 324 325 325 326 326 327 327 328 328 328 328 327 326 325 325 324 324 324 324 324 324 323 323 322 321 320 320 319 319 318 318 318 318 318 318 319 319 318 318 318 317 316 316 315 314 313 312 311 310 309 308 308 307 306 306
311 311 311 311 311 312 313 314 315 315 316 317 318 318 318 319 319 318 318 319 319 319 320 320 321 321 322 322 323 323 324 325 326 327 327 327 327 328 328 328 328 328 327 326 326 325 325 324 324 324 324 324 323 322 322 321 320 320 319 319 319 319 319 319 320 320 320 320 320 319 319 318 318 317 316 315 314 313 312 311 310 309 309 308 307 308
310 310 311 311 311 312 313 314 315 316 317 317 318 318 318 318 318 318 318 318 319 320 320 321 322 322 323 323 323 324 325 326 327 327 328 328 328 328 328 329 329 328 327 327 326 326 325 325 324 324 324 323 323 322 321 320 320 320 319 319 320 320 321 321 322 322 322 322 321 321 320 320 319 318 317 316 315 314 314 313 312 311 310 310 310 310
310 310 311 311 312 313 314 315 315 316 317 317 318 318 318 318 318 318 318 319 320 321 322 322 323 323 323 323 324 325 326 327 328 328 328 328 328 328 329 329 329 328 328 327 327 326 326 325 324 324 323 323 322 321 321 320 320 320 320 321 321 322 323 323 324 324 324 324 323 323 322 321 320 319 318 318 317 316 316 315 314 314 313 313 313 313
310 310 311 312 312 313 314 315 316 316 317 317 318 318 318 318 318 318 319 320 321 322 322 322 323 323 323 324 325 325 326 327 328 329 329 329 329 329 329 329 329 328 328 328 327 326 326 325 325 324 323 322 322 321 321 321 321 321 322 323 324 325 326 326 327 327 327 326 325 325 324 323 322 321 321 320 319 319 318 318 317 317 316 316 316 315
310 310 311 312 313 314 315 316 316 317 317 318 318 318 318 318 319 319 320 321 321 322 322 322 323 323 324 325 325 326 327 328 329 329 329 329 329 329 329 329 328 328 328 328 328 327 326 325 325 324 323 322 322 321 322 322 323 324 324 325 326 328 329 329 330 329 329 328 328 327 326 325 324 324 323 323 322 322 321 321 321 320 320 319 318 317
310 311 311 312 314 315 315 316 317 317 317 318 318 318 318 319 319 320 321 321 322 322 322 323 323 324 325 326 326 327 327 328 329 330 330 329 329 329 329 329 328 328 328 328 328 327 326 326 325 324 323 323 322 322 323 324 325 326 327 328 329 330 331 332 332 331 331 330 329 329 328 327 327 326 326 326 325 325 325 325 325 324 324 322 320 318
310 311 312 313 314 315 316 316 317 317 318 318 318 318 318 319 320 320 321 322 322 322 323 323 324 325 326 327 327 328 328 329 329 330 330 329 329 329 329 329 328 328 328 328 328 328 327 326 326 325 324 324 323 324 325 326 327 328 329 330 331 332 333 333 333 332 332 331 331 330 330 330 330 329 329 329 329 329 329 329 329 328 327 325 323 322
311 311 313 314 315 315 316 317 317 317 318 318 318 319 319 320 320 321 321 322 322 323 323 324 325 326 327 328 329 329 329 329 330 330 330 330 329 329 329 329 328 328 328 328 328 328 328 328 327 327 326 326 325 325 326 328 329 330 331 332 333 334 335 334 334 333 333 332 332 332 332 333 333 333 333 333 333 333 334 334 334 333 331 329 327 326
311 312 313 315 315 316 317 317 318 318 318 319 319 319 320 320 321 321 322 322 323 324 324 326 327 328 328 329 329 329 329 329 330 330 330 330 329 329 329 329 329 329 328 329 329 329 330 330 329 329 328 327 327 327 328 329 330 332 333 334 335 336 336 336 335 335 334 335 335 335 336 336 337 337 338 338 338 339 339 339 339 338 336 334 332 332
312 313 314 315 316 317 317 318 318 319 319 319 319 320 321 321 321 322 322 323 324 325 326 327 328 329 329 330 330 330 330 330 330 330 330 330 330 329 329 329 329 329 329 329 330 331 331 332 332 331 330 329 329 329 330 331 333 334 335 336 337 338 338 338 337 337 337 338 338 339 340 341 341 342 342 343 344 344 344 344 343 342 340 338 337 336
313 314 315 316 317 317 318 318 319 319 319 319 320 321 321 322 322 323 323 324 325 326 327 328 329 329 330 330 330 330 330 330 330 330 330 330 330 330 329 329 329 330 330 330 331 332 333 334 334 334 333 332 332 332 333 334 335 337 338 339 340 340 340 340 340 340 341 341 342 343 344 344 345 345 346 347 347 348 347 347 346 345 343 342 340 339
314 315 316 317 317 318 318 319 319 319 320 320 321 321 322 322 323 323 324 325 326 327 328 329 329 330 330 331 331 331 331 331 330 330 330 330 330 330 330 330 330 330 331 331 332 334 335 336 336 336 335 335 334 335 336 338 339 339 340 341 342 342 342 342 342 342 343 344 344 345 346 346 346 347 347 348 348 348 348 348 347 346 345 343 342 341
315 316 317 317 318 318 319 319 319 320 320 321 322 322 323 323 324 325 326 327 328 328 329 330 330 330 331 331 331 331 331 331 331 330 330 330 330 330 330 330 330 331 332 332 334 335 337 338 338 338 338 338 338 338 339 340 341 342 342 343 343 343 344 343 343 344 344 344 345 345 346 346 346 347 347 347 348 348 348 347 347 346 344 343 342 341
316 316 317 318 318 319 319 319 320 321 321 322 323 323 323 324 325 326 327 328 329 329 330 330 330 331 331 332 332 332 331 331 331 331 331 331 331 331 331 331 331 332 333 334 336 337 339 340 340 340 340 340 341 341 342 342 343 343 343 344 344 344 344 344 344 344 344 344 344 345 345 345 345 345 346 346 346 347 347 346 346 345 343 342 341 340
316 317 317 318 319 319 319 320 321 321 322 323 323 324 324 325 326 327 328 329 329 330 330 331 331 332 332 332 332 332 332 332 331 331 331 331 331 332 332 332 332 333 334 336 338 339 341 342 342 342 342 342 343 343 343 344 344 344 344 344 344 344 344 344 344 344 344 344 344 344 344 344 344 344 345 345 345 345 345 345 345 344 343 341 340 339
317 317 318 318 319 319 320 321 321 322 323 323 324 324 325 326 327 328 329 329 330 330 331 331 332 332 332 333 333 332 332 332 332 331 331 332 332 332 333 333 333 334 335 337 339 341 342 343 344 344 344 344 344 344 344 344 344 344 344 344 344 344 345 344 344 344 344 344 344 344 344 344 344 344 344 344 344 344 344 344 344 343 342 341 340 339
317 318 318 319 319 320 320 321 322 323 323 324 324 325 326 327 328 329 329 330 331 331 332 332 332 333 333 333 333 333 332 332 332 332 332 332 333 333 333 334 335 336 337 339 341 342 344 344 345 345 345 345 345 344 344 344 344 344 344 344 345 345 345 345 344 344 344 344 344 344 344 344 344 344 344 344 344 344 344 344 343 343 342 341 340 340
317 318 319 319 320 320 321 322 323 323 324 324 325 326 327 328 329 329 330 331 332 332 333 333 333 333 333 333 333 333 333 333 332 332 333 333 333 334 334 335 336 337 339 340 342 343 345 345 345 345 345 345 345 344 344 344 344 344 344 345 345 345 345 345 344 344 344 344 344 344 344 344 344 344 344 344 344 344 344 344 343 343 343 342 341 341
318 319 319 320 320 321 322 322 323 323 324 325 325 326 327 328 329 330 331 332 332 333 333 333 333 333 333 333 333 333 333 333 333 333 333 334 334 334 335 336 337 338 340 342 343 344 345 345 345 345 344 344 344 344 344 344 344 344 344 345 345 345 344 344 344 344 343 343 343 343 343 343 344 344 344 344 344 344 345 344 344 344 344 343 343 343
318 319 319 320 321 321 322 323 323 324 324 325 326 327 328 329 330 331 332 333 333 333 334 334 334 333 333 333 333 333 333 333 334 334 334 334 335 335 336 336 338 339 341 343 344 345 345 345 345 344 344 343 343 343 343 343 343 343 344 344 344 345 345 344 343 343 342 342 342 342 342 343 343 343 344 344 344 345 345 345 345 345 345 344 344 344
319 319 320 321 321 322 323 323 324 324 325 326 327 328 329 330 331 332 333 333 333 334 334 334 334 334 333 333 333 334 334 334 334 335 335 335 336 336 337 337 339 340 342 344 345 345 345 345 344 344 343 343 342 342 342 342 342 342 343 343 343 344 344 343 343 342 342 342 341 341 341 342 342 342 343 344 344 345 346 347 347 347 347 346 345 345
319 320 321 321 322 322 323 324 324 325 326 327 328 329 330 331 332 333 333 333 334 334 334 334 334 334 334 334 334 334 335 335 335 336 336 336 336 337 337 338 339 341 342 343 344 345 345 345 344 344 343 342 341 341 341 341 341 341 342 342 342 342 342 342 341 341 341 341 341 341 341 341 341 342 342 343 344 346 347 348 349 349 349 348 347 346
320 321 321 322 322 323 323 324 325 326 327 328 329 330 331 332 333 333 334 334 334 334 334 334 334 334 334 334 335 335 335 336 336 336 336 336 337 337 338 339 340 341 342 343 344 344 345 345 344 344 342 341 340 340 340 340 340 340 341 341 341 341 340 340 340 340 340 340 340 340 340 341 341 341 341 342 343 345 347 349 350 351 351 350 349 348
321 321 322 322 323 323 324 325 326 327 328 329 330 331 332 333 333 334 334 334 334 334 334 334 334 334 335 335 335 336 336 336 336 336 336 337 337 337 338 339 340 341 342 342 343 343 344 344 344 344 343 341 340 339 339 339 339 339 339 339 339 339 339 339 339 339 339 339 340 340 340 340 341 341 341 341 342 343 345 348 350 352 353 353 352 350
321 322 322 323 323 324 325 325 327 328 329 330 331 332 333 334 334 334 334 334 334 334 334 334 334 335 335 335 336 337 337 337 337 337 337 337 337 338 338 339 340 341 341 342 342 342 343 343 344 343 343 341 340 339 338 338 338 338 338 338 338 338 338 338 338 338 338 338 338 339 340 340 341 341 341 341 341 341 343 346 349 352 355 355 355 353
322 322 323 323 324 325 326 327 328 329 330 331 332 333 333 334 334 334 334 334 334 334 334 335 335 335 336 336 337 337 338 338 338 338 338 338 338 339 339 340 340 341 341 341 341 341 341 341 342 342 342 341 340 339 338 338 338 337 337 337 338 337 337 337 337 337 336 337 337 338 339 340 340 341 341 341 340 340 341 343 346 351 354 357 357 356
322 322 323 324 324 325 327 328 329 330 331 332 333 333 334 334 334 334 334 334 334 335 335 335 335 336 336 337 337 338 338 338 338 338 338 339 339 340 340 341 341 341 341 341 340 340 340 339 340 341 341 341 341 340 339 338 338 337 337 337 337 337 336 336 335 335 335 335 336 336 337 339 340 341 341 341 340 340 339 340 343 348 353 357 359 358
322 323 324 324 325 326 328 329 330 331 332 333 333 334 334 334 334 334 335 335 335 335 335 335 336 336 337 338 338 338 339 339 339 339 339 340 340 341 341 342 342 342 341 341 340 340 339 339 339 339 340 341 341 341 340 339 338 337 337 336 336 335 335 334 334 334 334 334 334 335 336 337 338 340 341 341 341 340 339 339 340 344 350 356 359 360